Aoxiang-1 (42735 NORAD) Tracking and Keplerian Element Data

This shows tracking and keplerian element data for the satellite.

Feedback or suggestion? Click here.




ElementValue
Catalog42735
NameAoxiang-1
Epoch Orbit12090
Epoch Day177.55530794
Epoch Year2019
RAAN219.6428
Inclination51.6164
Eccentricity0.0005776
Argument of Perigee333.1578
Mean Anonmoly33.896
Mean Motion16.39815471
Decay Rate0.0721599
L11 42735U 98067MQ 19177.55530794 .07215990 12478-4 53264-3 0 9996
L22 42735 51.6164 219.6428 0005776 333.1578 33.8960 16.39815471120909

Live tracking and technical data element details for Aoxiang-1 (NORAD 42735). Aoxiang-1 can be tracked NOW for your location showing map with azimuth and elevation plus other details from your city location.

Track the satellite on the map from your city or location and see movement details for azimuth, elevation, latitude, longitude, range, height, and movement on the map or in text.







IsCatalogInMostPopularTable: catalog: 42735, numindb: 399
Update: records affected: 1



GetName: 42735 Aoxiang-1

Hit Count: updated at: Thu, 22 Oct 2020 02:51:18 GMT